Flag for Switzerland Weather past 2 weeks in Yverdon-les-Bains, Vaud, Switzerland

Now
71 °F

Passing clouds.


Feels Like: 74 °F
Forecast: 62 / 94 °F
Wind: 1 mph from Southwest

Location: Payerne

Current Time: Jul 3, 2015 at 8:45:58 AM

Latest Report: Jul 3, 2015 at 8:00 AM


Visibility: 10 mi

Pressure: 30.23 "Hg

Humidity: 72%

Dew point: 62 °F

Location of Yverdon-les-BainsLocation

Historic Weather in Yverdon-les-Bains — Graph

°F

Yverdon-les-Bains temperature yesterday

Maximum temperature yesterday: 95 °F (at 4:00 PM)
Minimum temperature yesterday: 65 °F (at 6:00 AM)
Average temperature yesterday: 79 °F

Past Weeks' High & Low Weather Summary

 TemperatureHumidityPressure
High95 °F (Jul 2, 4:00 PM)97% (Jun 19, 5:00 AM)30.24 "Hg (Jun 19, 5:00 AM)
Low44 °F (Jun 24, 6:00 AM)23% (Jun 28, 3:00 PM)29.73 "Hg (Jun 22, 9:00 PM)
Average66 °F64%30.08 "Hg
* Reported Jun 18 7:00 AM — Jul 3 7:00 AM, Yverdon-les-Bains, Weather by CustomWeather, © 2015

Note: Actual official high and low records may vary slightly from our data, if they occured in-between our weather recording intervals... More about our weather records

Advertising

Yverdon-les-Bains weather history for previous 24 hours

 ConditionsComfort  
Time TempWeatherWind HumidityBarometerVisibility
7:00 AM
Fri, Jul 3
68 °FMild.1 mph82%30.24 "HgN/A
6:00 AM66 °FMild.2 mph83%30.23 "HgN/A
4:00 AM68 °FMild.2 mph74%30.21 "HgN/A
3:00 AM69 °FMild.1 mph73%30.20 "HgN/A
2:00 AM72 °FPassing clouds.7 mph65%30.19 "Hg16 mi
1:00 AM74 °FMild.6 mph60%30.18 "HgN/A
12:00 AM75 °FMild.5 mph58%30.17 "HgN/A
10:00 PM
Thu, Jul 2
79 °FWarm.3 mph48%30.12 "HgN/A
9:00 PM84 °FWarm.2 mph42%30.08 "HgN/A
8:00 PM87 °FScattered clouds.6 mph37%30.05 "Hg14 mi
7:00 PM92 °FHot.3 mph33%30.03 "HgN/A
6:00 PM94 °FExtremely hot.9 mph25%30.02 "HgN/A
5:00 PM94 °FExtremely hot.8 mph27%30.02 "HgN/A
4:00 PM95 °FExtremely hot.7 mph27%30.02 "HgN/A
3:00 PM92 °FHot.3 mph43%30.03 "HgN/A
2:00 PM89 °FPassing clouds.3 mph48%30.05 "Hg11 mi
1:00 PM85 °FWarm.2 mph52%30.07 "HgN/A
12:00 PM84 °FWarm.2 mph54%30.08 "HgN/A
11:00 AM81 °FSunny.1 mph56%30.09 "Hg11 mi
10:00 AM78 °FWarm.1 mph61%30.10 "HgN/A
9:00 AM75 °FMild.1 mph67%30.12 "HgN/A
8:00 AM70 °FPassing clouds.2 mph80%30.13 "Hg10 mi
Weather by CustomWeather, © 2015

See weather overviewHow to use our weather pages